Location: Dehesa de la Cepeda
(40.6574°N, 4.3013°W)
Time: 09:04:46
(UTC+00:00)

CARTOSAT-1 - Pass Details

Date: 05 July 2020
Orbit: 617 x 618 km, 97.8° (Epoch: 08 August)

Event Time Altitude Azimuth Distance (km) Brightness Sun altitude
Exits shadow 22:10:01 37° 192° (SSW) 957 4.1 -19.6°
Maximum altitude 22:11:33 64° 259° (W) 685 3.8 -19.8°
Drops below altitude 10° 22:15:51 10° 341° (NNW) 1,989 7.3 -20.2°
Sets 22:18:04 0° 345° (NNW) 2,900 8.4 -20.4°
